Location: Little Italy
(37.8008°N, 122.4108°W)
Time: 21:15:19
(UTC+00:00)

CZ-4B R/B - Pass Details

Date: 29 October 2020
Orbit: 489 x 649 km, 97.9° (Epoch: 24 November)

Event Time Altitude Azimuth Distance (km) Brightness Sun altitude
Rises 14:00:45 0° 360° (N) 2,773 6.3 -6.9°
Reaches altitude 10° 14:03:03 10° 349° (NNW) 1,899 5.3 -6.5°
Maximum altitude 14:06:38 29° 289° (WNW) 1,102 3.8 -5.8°
Drops below altitude 10° 14:10:20 10° 229° (SW) 1,968 5.3 -5.1°
Sets 14:12:45 0° 218° (SW) 2,892 6.2 -4.6°
